Simultaneous Nadir Overpasses (SNOs) Predictions

Prediction of SNOs between NOAA-21 and METOP-B Satellite Orbit:

Table of predicted SNOs for the next 14.0 days since TLE Epoch: 11/29/2022
Index Date (NOAA-21) Time (NOAA-21) Lat,Lon (NOAA-21) SZA (NOAA-21 ) Date (METOP-B) Time (METOP-B) Lat,Lon (METOP-B) SZA (METOP-B ) Distance(km) Time Diff (sec)
1 12/12/2022 19:47:02 -72.04, 56.62 84.88 12/12/2022 19:45:55 -72.02, 54.10 84.81 86.49 67
2 12/12/2022 21:28:21 -72.48, 30.47 84.41 12/12/2022 21:27:08 -72.46, 29.61 84.39 28.89 73
3 12/12/2022 22:19:01 72.24,-161.73 95.34 12/12/2022 22:17:52 72.24,-163.49 95.41 59.65 69
4 12/12/2022 23:09:36 -72.71, 4.71 84.16 12/12/2022 23:08:25 -72.70, 4.75 84.17 1.97 71
5 12/13/2022 00:00:20 72.68, 172.10 95.81 12/12/2022 23:59:06 72.63, 171.95 95.78 7.22 74
6 12/13/2022 00:50:46 -72.69, -20.53 84.18 12/13/2022 00:49:47 -72.68, -20.63 84.18 3.39 59
7 12/13/2022 01:41:31 72.70, 146.75 95.84 12/13/2022 01:40:26 72.71, 146.78 95.86 1.32 65
8 12/13/2022 02:31:57 -72.72, -45.88 84.15 12/13/2022 02:31:08 -72.71, -45.90 84.15 0.93 49
9 12/13/2022 03:22:42 72.73, 121.40 95.88 12/13/2022 03:21:47 72.74, 121.50 95.89 3.65 55
10 12/13/2022 04:13:08 -72.74, -71.23 84.12 12/13/2022 04:12:29 -72.74, -71.18 84.11 1.72 39
11 12/13/2022 05:03:52 72.71, 96.15 95.86 12/13/2022 05:03:09 72.73, 96.12 95.88 2.19 43
12 12/13/2022 05:54:18 -72.72, -96.48 84.14 12/13/2022 05:53:51 -72.72, -96.56 84.13 2.76 27
13 12/13/2022 06:45:03 72.74, 70.80 95.89 12/13/2022 06:44:30 72.76, 70.85 95.91 2.76 33
14 12/13/2022 07:35:29 -72.75,-121.82 84.10 12/13/2022 07:35:12 -72.75,-121.83 84.09 0.98 17
15 12/13/2022 08:26:14 72.76, 45.45 95.93 12/13/2022 08:25:52 72.74, 45.47 95.90 2.94 22



Historial Predications of SNOs between NOAA-21 and METOP-B
